| time (UTC) | temp C | wind direction | speed KPH | gust KPH | rain 1hr cm | rain 24hr cm | rain mn cm | humidity % | barometer mb |
| 20260502190050 | 22 | 18 | 29.0 | 38.6 | 0.00 | 3.58 | 0.00 | 52 | 1019.6 |
| 20260502184547 | 22 | 22 | 27.4 | 41.8 | 0.00 | 3.96 | 0.00 | 52 | 1019.9 |
| 20260502183046 | 22 | 44 | 20.9 | 33.8 | 0.00 | 3.96 | 0.00 | 52 | 1020.1 |
| 20260502181604 | 22 | 41 | 27.4 | 37.0 | 0.00 | 3.96 | 0.00 | 52 | 1020.5 |
| 20260502163027 | 20 | 45 | 25.7 | 41.8 | 0.00 | 5.94 | 0.00 | 68 | 1020.4 |
| 20260502161524 | 19 | 37 | 24.1 | 35.4 | 0.00 | 5.94 | 0.00 | 70 | 1020.4 |
| 20260502151516 | 18 | 9 | 24.1 | 37.0 | 0.00 | 7.09 | 0.00 | 79 | 1020.5 |
| 20260502140106 | 15 | 24 | 24.1 | 30.6 | 0.00 | 7.11 | 0.00 | 87 | 1020.0 |
| 20260502123041 | 12 | 32 | 24.1 | 35.4 | 0.00 | 7.32 | 0.00 | 91 | 1018.7 |
| 20260502121540 | 12 | 19 | 27.4 | 35.4 | 0.00 | 7.32 | 0.00 | 91 | 1018.5 |
| 20260502114536 | 11 | 326 | 27.4 | 35.4 | 0.00 | 7.32 | 0.00 | 91 | 1018.2 |
| 20260502113035 | 11 | 13 | 20.9 | 32.2 | 0.00 | 7.32 | 0.00 | 91 | 1017.8 |
| 20260502111531 | 11 | 54 | 22.5 | 29.0 | 0.00 | 7.32 | 0.00 | 90 | 1017.7 |
| 20260502110029 | 11 | 30 | 20.9 | 30.6 | 0.00 | 7.32 | 0.00 | 90 | 1017.3 |
| 20260502104526 | 11 | 29 | 20.9 | 27.4 | 0.00 | 7.32 | 0.00 | 90 | 1017.0 |
| 20260502103025 | 12 | 42 | 24.1 | 32.2 | 0.00 | 7.32 | 0.00 | 90 | 1016.7 |
| 20260502101524 | 12 | 59 | 24.1 | 37.0 | 0.00 | 7.32 | 0.00 | 90 | 1016.4 |
| 20260502091515 | 12 | 46 | 24.1 | 41.8 | 0.00 | 7.32 | 0.00 | 92 | 1015.6 |
| 20260502071508 | 12 | 39 | 27.4 | 41.8 | 0.00 | 7.32 | 0.00 | 92 | 1015.1 |
| 20260502070008 | 12 | 40 | 25.7 | 43.5 | 0.00 | 7.32 | 0.00 | 92 | 1015.2 |
| 20260502064515 | 12 | 17 | 30.6 | 43.5 | 0.00 | 7.32 | 0.00 | 93 | 1015.2 |
| 20260502063005 | 12 | 32 | 30.6 | 48.3 | 0.00 | 7.32 | 0.00 | 93 | 1015.2 |
| 20260502061503 | 12 | 5 | 33.8 | 53.1 | 0.00 | 7.32 | 0.00 | 93 | 1015.1 |
| 20260502054600 | 13 | 35 | 37.0 | 48.3 | 0.00 | 7.32 | 0.00 | 93 | 1015.3 |
| 20260502053055 | 13 | 32 | 30.6 | 43.5 | 0.00 | 7.32 | 0.00 | 94 | 1015.6 |
| 20260502051553 | 13 | 32 | 30.6 | 40.2 | 0.00 | 7.32 | 0.00 | 94 | 1015.9 |
| 20260502050051 | 13 | 23 | 30.6 | 40.2 | 0.03 | 7.32 | 0.00 | 94 | 1015.8 |
| 20260502044549 | 13 | 9 | 27.4 | 37.0 | 0.08 | 7.32 | 7.32 | 94 | 1015.7 |
| 20260502043050 | 13 | 34 | 27.4 | 38.6 | 0.15 | 7.32 | 7.32 | 94 | 1015.4 |
| 20260502041545 | 13 | 24 | 22.5 | 37.0 | 0.15 | 7.32 | 7.32 | 94 | 1015.3 |
| 20260502040054 | 13 | 44 | 27.4 | 38.6 | 0.13 | 7.29 | 7.29 | 94 | 1014.6 |
| 20260502034542 | 13 | 49 | 24.1 | 40.2 | 0.10 | 7.24 | 7.24 | 94 | 1014.7 |
| 20260502033042 | 13 | 5 | 32.2 | 41.8 | 0.05 | 7.16 | 7.16 | 94 | 1014.6 |
| 20260502031546 | 13 | 325 | 29.0 | 40.2 | 0.13 | 7.16 | 7.16 | 94 | 1014.7 |
| 20260502030036 | 14 | 24 | 27.4 | 38.6 | 0.28 | 7.16 | 7.16 | 94 | 1014.4 |
| 20260502024532 | 15 | 315 | 27.4 | 40.2 | 0.28 | 7.14 | 7.14 | 94 | 1014.0 |
| 20260502023037 | 15 | 5 | 25.7 | 33.8 | 0.38 | 7.11 | 7.11 | 94 | 1013.6 |
| 20260502021531 | 15 | 20 | 24.1 | 37.0 | 0.38 | 7.04 | 7.04 | 94 | 1013.6 |
| 20260502020031 | 15 | 44 | 24.1 | 35.4 | 0.28 | 6.88 | 6.88 | 94 | 1012.9 |
| 20260502014542 | 15 | 53 | 24.1 | 38.6 | 0.28 | 6.86 | 6.86 | 94 | 1012.3 |
| 20260502013028 | 15 | 25 | 22.5 | 33.8 | 0.15 | 6.73 | 6.73 | 94 | 1012.5 |
| 20260502011528 | 15 | 22 | 27.4 | 43.5 | 0.10 | 6.65 | 6.65 | 94 | 1011.9 |
| 20260502010032 | 15 | 17 | 30.6 | 48.3 | 0.05 | 6.60 | 6.60 | 94 | 1011.0 |
| 20260502004524 | 15 | 13 | 35.4 | 48.3 | 0.03 | 6.58 | 6.58 | 94 | 1011.0 |
| 20260502003022 | 15 | 19 | 35.4 | 48.3 | 0.03 | 6.58 | 6.58 | 94 | 1010.4 |
| 20260502001530 | 16 | 15 | 27.4 | 41.8 | 0.00 | 6.55 | 6.55 | 94 | 1011.1 |
| 20260502000019 | 16 | 39 | 30.6 | 45.1 | 0.00 | 6.55 | 6.55 | 94 | 1010.4 |
| 20260501234518 | 16 | 58 | 32.2 | 45.1 | 0.00 | 6.55 | 6.55 | 94 | 1009.6 |
| 20260501233017 | 16 | 14 | 32.2 | 46.7 | 0.00 | 6.55 | 6.55 | 94 | 1010.2 |
| 20260501231517 | 16 | 36 | 38.6 | 53.1 | 0.08 | 6.55 | 6.55 | 94 | 1009.9 |
| 20260501230016 | 16 | 53 | 30.6 | 43.5 | 0.15 | 6.55 | 6.55 | 94 | 1010.6 |
| 20260501224517 | 16 | 40 | 30.6 | 51.5 | 0.25 | 6.55 | 6.55 | 94 | 1010.6 |
| 20260501223018 | 16 | 44 | 35.4 | 49.9 | 0.58 | 6.55 | 6.55 | 94 | 1010.3 |
| 20260501221513 | 16 | 49 | 40.2 | 59.5 | 0.89 | 6.45 | 6.45 | 95 | 1009.2 |
| 20260501220011 | 16 | 63 | 29.0 | 41.8 | 0.99 | 6.40 | 6.40 | 95 | 1010.4 |
| 20260501214509 | 16 | 42 | 24.1 | 37.0 | 1.14 | 6.30 | 6.30 | 94 | 1011.6 |
| 20260501213009 | 16 | 48 | 32.2 | 46.7 | 1.37 | 5.82 | 5.82 | 94 | 1010.1 |
| 20260501211509 | 16 | 42 | 14.5 | 33.8 | 1.12 | 5.56 | 5.56 | 94 | 1011.2 |
| 20260501210019 | 16 | 67 | 22.5 | 35.4 | 1.17 | 5.38 | 5.38 | 94 | 1009.7 |
| 20260501204508 | 16 | 28 | 27.4 | 45.1 | 1.04 | 5.08 | 5.08 | 94 | 1009.8 |
| 20260501203006 | 16 | 27 | 27.4 | 61.2 | 0.53 | 4.47 | 4.47 | 94 | 1010.9 |
| 20260501201505 | 16 | 69 | 33.8 | 46.7 | 0.56 | 4.45 | 4.45 | 94 | 1008.2 |
| 20260501200004 | 16 | 48 | 17.7 | 32.2 | 0.43 | 4.19 | 4.19 | 94 | 1010.7 |
| 20260501194503 | 16 | 59 | 32.2 | 43.5 | 0.61 | 4.04 | 4.04 | 94 | 1009.3 |
| 20260501193001 | 16 | 53 | 24.1 | 40.2 | 0.48 | 3.91 | 3.91 | 94 | 1010.1 |
| 20260501191501 | 16 | 61 | 29.0 | 49.9 | 0.48 | 3.89 | 3.89 | 94 | 1009.9 |